DAL1095 KSLC-KLAX

Flight info

Callsign DAL1095
Flight time 1h 52m
Altitude 36000
Route WINEN LAKRR HAKMN ANJLL4
Aircraft B739/M-SDE2E3FGHIRWXY/LB1

Departure

Time 2026-04-21 21:33
Airport Salt Lake City International Airport (KSLC)

Arrival

Time 2026-04-21 23:26
Airport Los Angeles International Airport (KLAX)
Time Latitude Longitude Altitude Speed Heading
2026-04-21 20:57 40.78492 -111.98700 4229 ft 0 kts 11°
2026-04-21 21:14 40.78480 -111.98703 4229 ft 4 kts
2026-04-21 21:14 40.78454 -111.98701 4230 ft 4 kts 336°
2026-04-21 21:15 40.78437 -111.98686 4230 ft 0 kts 311°
2026-04-21 21:17 40.78439 -111.98692 4230 ft 1 kts 302°
2026-04-21 21:18 40.78442 -111.98710 4230 ft 3 kts 265°
2026-04-21 21:18 40.78427 -111.98738 4230 ft 5 kts 234°
2026-04-21 21:18 40.78401 -111.98788 4230 ft 7 kts 234°
2026-04-21 21:18 40.78384 -111.98844 4230 ft 7 kts 272°
2026-04-21 21:19 40.78382 -111.98910 4230 ft 9 kts 268°
2026-04-21 21:19 40.78377 -111.98991 4230 ft 9 kts 264°
2026-04-21 21:19 40.78371 -111.99071 4230 ft 9 kts 264°
2026-04-21 21:19 40.78366 -111.99160 4230 ft 10 kts 265°
2026-04-21 21:20 40.78360 -111.99247 4230 ft 9 kts 264°
2026-04-21 21:20 40.78370 -111.99328 4229 ft 9 kts 320°
2026-04-21 21:20 40.78435 -111.99341 4230 ft 10 kts 355°
2026-04-21 21:20 40.78511 -111.99352 4230 ft 12 kts 352°
2026-04-21 21:21 40.78604 -111.99362 4230 ft 15 kts 355°
2026-04-21 21:21 40.78711 -111.99374 4230 ft 16 kts 355°
2026-04-21 21:21 40.78827 -111.99388 4230 ft 17 kts 355°
2026-04-21 21:21 40.78951 -111.99402 4230 ft 19 kts 355°
2026-04-21 21:22 40.79083 -111.99418 4230 ft 19 kts 355°
2026-04-21 21:22 40.79165 -111.99402 4230 ft 11 kts 53°
2026-04-21 21:22 40.79179 -111.99296 4230 ft 12 kts 85°
2026-04-21 21:22 40.79188 -111.99175 4230 ft 14 kts 84°
2026-04-21 21:23 40.79196 -111.99045 4230 ft 15 kts 85°
2026-04-21 21:23 40.79201 -111.98956 4230 ft 15 kts 82°
2026-04-21 21:23 40.79211 -111.98826 4230 ft 14 kts 85°
2026-04-21 21:23 40.79219 -111.98699 4230 ft 14 kts 85°
2026-04-21 21:24 40.79228 -111.98568 4230 ft 14 kts 84°
2026-04-21 21:24 40.79237 -111.98439 4230 ft 14 kts 85°
2026-04-21 21:24 40.79248 -111.98277 4230 ft 13 kts 85°
2026-04-21 21:24 40.79253 -111.98197 4230 ft 13 kts 85°
2026-04-21 21:25 40.79261 -111.98064 4229 ft 16 kts 83°
2026-04-21 21:25 40.79272 -111.97910 4230 ft 13 kts 85°
2026-04-21 21:25 40.79322 -111.97844 4230 ft 11 kts
2026-04-21 21:25 40.79402 -111.97854 4230 ft 12 kts 354°
2026-04-21 21:26 40.79492 -111.97865 4230 ft 14 kts 354°
2026-04-21 21:26 40.79592 -111.97875 4230 ft 15 kts 355°
2026-04-21 21:26 40.79700 -111.97888 4230 ft 16 kts 355°
2026-04-21 21:26 40.79818 -111.97902 4230 ft 17 kts 354°
2026-04-21 21:27 40.79936 -111.97915 4230 ft 17 kts 355°
2026-04-21 21:27 40.80050 -111.97928 4229 ft 16 kts 355°
2026-04-21 21:27 40.80162 -111.97941 4230 ft 17 kts 355°
2026-04-21 21:27 40.80282 -111.97961 4230 ft 17 kts 346°
2026-04-21 21:28 40.80398 -111.97994 4230 ft 17 kts 353°
2026-04-21 21:28 40.80510 -111.98008 4230 ft 16 kts 355°
2026-04-21 21:28 40.80676 -111.98055 4230 ft 7 kts 354°
2026-04-21 21:29 40.80722 -111.98039 4230 ft 7 kts 38°
2026-04-21 21:29 40.80735 -111.97979 4230 ft 7 kts 83°
2026-04-21 21:29 40.80740 -111.97915 4230 ft 7 kts 85°
2026-04-21 21:29 40.80743 -111.97871 4229 ft 1 kts 85°
2026-04-21 21:31 40.80743 -111.97858 4229 ft 3 kts 85°
2026-04-21 21:31 40.80747 -111.97806 4229 ft 8 kts 86°
2026-04-21 21:32 40.80731 -111.97722 4228 ft 8 kts 112°
2026-04-21 21:32 40.80692 -111.97692 4228 ft 4 kts 173°
2026-04-21 21:32 40.80658 -111.97688 4228 ft 10 kts 175°
2026-04-21 21:32 40.80379 -111.97655 4231 ft 72 kts 174°
2026-04-21 21:33 40.79686 -111.97575 4228 ft 126 kts 175°
2026-04-21 21:33 40.78666 -111.97455 4239 ft 167 kts 174°
2026-04-21 21:33 40.77445 -111.97315 4597 ft 182 kts 176°
2026-04-21 21:33 40.76195 -111.97146 5383 ft 174 kts 176°
2026-04-21 21:34 40.75002 -111.96967 6048 ft 179 kts 175°
2026-04-21 21:34 40.73727 -111.96755 6503 ft 189 kts 174°
2026-04-21 21:34 40.72391 -111.96551 6811 ft 203 kts 175°
2026-04-21 21:34 40.70950 -111.96342 7107 ft 214 kts 175°
2026-04-21 21:35 40.69418 -111.96121 7367 ft 230 kts 175°
2026-04-21 21:35 40.67740 -111.95860 7625 ft 253 kts 175°
2026-04-21 21:35 40.65921 -111.95568 8000 ft 270 kts 174°
2026-04-21 21:35 40.64026 -111.95273 8669 ft 274 kts 175°
2026-04-21 21:36 40.62141 -111.94983 9570 ft 272 kts 174°
2026-04-21 21:36 40.60257 -111.94698 10299 ft 275 kts 174°
2026-04-21 21:36 40.58286 -111.94407 10546 ft 296 kts 174°
2026-04-21 21:36 40.56163 -111.94104 10724 ft 317 kts 175°
2026-04-21 21:37 40.53921 -111.93790 10867 ft 338 kts 175°
2026-04-21 21:37 40.51522 -111.93458 11043 ft 355 kts 174°
2026-04-21 21:37 40.49036 -111.93311 11478 ft 360 kts 185°
2026-04-21 21:37 40.46589 -111.94011 12119 ft 361 kts 198°
2026-04-21 21:38 40.44292 -111.95343 12859 ft 361 kts 204°
2026-04-21 21:38 40.42039 -111.96823 13474 ft 363 kts 204°
2026-04-21 21:38 40.39767 -111.98301 14038 ft 366 kts 203°
2026-04-21 21:38 40.37478 -111.99779 14599 ft 367 kts 203°
2026-04-21 21:39 40.35175 -112.01261 15145 ft 369 kts 204°
2026-04-21 21:39 40.32861 -112.02746 15701 ft 371 kts 204°
2026-04-21 21:39 40.30536 -112.04233 16235 ft 373 kts 204°
2026-04-21 21:39 40.28197 -112.05727 16767 ft 374 kts 204°
2026-04-21 21:40 40.25853 -112.07222 17304 ft 376 kts 204°
2026-04-21 21:40 40.23500 -112.08721 17827 ft 378 kts 204°
2026-04-21 21:40 40.21124 -112.10234 18226 ft 382 kts 204°
2026-04-21 21:40 40.18719 -112.11762 18626 ft 385 kts 204°
2026-04-21 21:41 40.16343 -112.13272 19081 ft 387 kts 204°
2026-04-21 21:41 40.13912 -112.14815 19498 ft 389 kts 205°
2026-04-21 21:41 40.11470 -112.16364 19958 ft 390 kts 205°
2026-04-21 21:41 40.09025 -112.17914 20418 ft 392 kts 205°
2026-04-21 21:42 40.06562 -112.19474 20860 ft 394 kts 205°
2026-04-21 21:42 40.04092 -112.21037 21282 ft 396 kts 205°
2026-04-21 21:42 40.01599 -112.22614 21643 ft 399 kts 205°
2026-04-21 21:42 39.99097 -112.24195 22015 ft 401 kts 205°
2026-04-21 21:43 39.96574 -112.25788 22393 ft 403 kts 205°
2026-04-21 21:43 39.94040 -112.27387 22783 ft 405 kts 205°
2026-04-21 21:43 39.91490 -112.28993 23178 ft 407 kts 205°
2026-04-21 21:43 39.88968 -112.30582 23525 ft 409 kts 205°
2026-04-21 21:44 39.86394 -112.32201 23829 ft 412 kts 205°
2026-04-21 21:44 39.83804 -112.33830 24175 ft 413 kts 205°
2026-04-21 21:44 39.81206 -112.35461 24481 ft 416 kts 205°
2026-04-21 21:44 39.78591 -112.37103 24781 ft 418 kts 205°
2026-04-21 21:45 39.75962 -112.38751 25076 ft 420 kts 205°
2026-04-21 21:45 39.73321 -112.40405 25372 ft 422 kts 205°
2026-04-21 21:45 39.70666 -112.42067 25662 ft 425 kts 205°
2026-04-21 21:45 39.67997 -112.43736 25938 ft 427 kts 205°
2026-04-21 21:46 39.65348 -112.45392 26216 ft 428 kts 205°
2026-04-21 21:46 39.62655 -112.47073 26539 ft 429 kts 205°
2026-04-21 21:46 39.59960 -112.48755 26865 ft 430 kts 205°
2026-04-21 21:46 39.57259 -112.50438 27249 ft 431 kts 205°
2026-04-21 21:47 39.54550 -112.52125 27612 ft 431 kts 205°
2026-04-21 21:47 39.51853 -112.53803 28046 ft 429 kts 205°
2026-04-21 21:47 39.49168 -112.55472 28518 ft 427 kts 205°
2026-04-21 21:47 39.46495 -112.57133 28964 ft 426 kts 205°
2026-04-21 21:48 39.43848 -112.58776 29365 ft 425 kts 205°
2026-04-21 21:48 39.41145 -112.60452 29805 ft 424 kts 205°
2026-04-21 21:48 39.38527 -112.62074 30220 ft 423 kts 205°
2026-04-21 21:48 39.35879 -112.63713 30447 ft 421 kts 205°
2026-04-21 21:49 39.33235 -112.65348 30804 ft 420 kts 205°
2026-04-21 21:49 39.30597 -112.66979 31150 ft 419 kts 205°
2026-04-21 21:49 39.27971 -112.68600 31512 ft 417 kts 205°
2026-04-21 21:49 39.25356 -112.70213 31862 ft 416 kts 205°
2026-04-21 21:50 39.22746 -112.71822 32196 ft 415 kts 205°
2026-04-21 21:50 39.20142 -112.73425 32540 ft 414 kts 205°
2026-04-21 21:50 39.17549 -112.75022 32879 ft 413 kts 205°
2026-04-21 21:50 39.14960 -112.76613 33192 ft 412 kts 205°
2026-04-21 21:51 39.12408 -112.78181 33515 ft 411 kts 205°
2026-04-21 21:51 39.09829 -112.79765 33833 ft 410 kts 206°
2026-04-21 21:51 39.07256 -112.81343 34061 ft 410 kts 206°
2026-04-21 21:51 39.04681 -112.82921 34283 ft 410 kts 206°
2026-04-21 21:52 39.02107 -112.84497 34501 ft 410 kts 206°
2026-04-21 21:52 38.99531 -112.86074 34690 ft 410 kts 206°
2026-04-21 21:52 38.96956 -112.87649 34928 ft 409 kts 206°
2026-04-21 21:52 38.94380 -112.89222 35188 ft 408 kts 206°
2026-04-21 21:53 38.91823 -112.90783 35434 ft 407 kts 206°
2026-04-21 21:53 38.89259 -112.92347 35617 ft 407 kts 206°
2026-04-21 21:53 38.86726 -112.93891 35770 ft 408 kts 206°
2026-04-21 21:54 38.81568 -112.97031 35797 ft 409 kts 206°
2026-04-21 21:54 38.76441 -113.00146 35796 ft 406 kts 206°
2026-04-21 21:55 38.71343 -113.03240 35807 ft 404 kts 206°
2026-04-21 21:55 38.66297 -113.06297 35890 ft 403 kts 206°
2026-04-21 21:56 38.61189 -113.09387 35918 ft 403 kts 206°
2026-04-21 21:56 38.56133 -113.12440 35948 ft 404 kts 206°
2026-04-21 21:57 38.51048 -113.15506 35910 ft 403 kts 207°
2026-04-21 21:57 38.45968 -113.18565 35916 ft 404 kts 207°
2026-04-21 21:58 38.40888 -113.21619 35913 ft 403 kts 207°
2026-04-21 21:58 38.35807 -113.24668 35891 ft 404 kts 207°
2026-04-21 21:59 38.30753 -113.27696 35878 ft 404 kts 207°
2026-04-21 21:59 38.25668 -113.30739 35846 ft 404 kts 207°
2026-04-21 22:00 38.20577 -113.33780 35824 ft 404 kts 207°
2026-04-21 22:00 38.15486 -113.36817 35814 ft 404 kts 207°
2026-04-21 22:01 38.10400 -113.39846 35818 ft 403 kts 207°
2026-04-21 22:01 38.05317 -113.42869 35821 ft 403 kts 207°
2026-04-21 22:02 38.00239 -113.45885 35817 ft 402 kts 207°
2026-04-21 22:02 37.95186 -113.48881 35807 ft 400 kts 207°
2026-04-21 22:03 37.90066 -113.51537 35829 ft 400 kts 202°
2026-04-21 22:03 37.84797 -113.53791 35824 ft 399 kts 201°
2026-04-21 22:04 37.79540 -113.56020 35815 ft 397 kts 202°
2026-04-21 22:04 37.74311 -113.58266 35829 ft 396 kts 202°
2026-04-21 22:05 37.69098 -113.60521 35836 ft 396 kts 202°
2026-04-21 22:05 37.63915 -113.62766 35838 ft 396 kts 202°
2026-04-21 22:06 37.58698 -113.65022 35836 ft 397 kts 202°
2026-04-21 22:06 37.53554 -113.67245 35838 ft 398 kts 202°
2026-04-21 22:07 37.48307 -113.69507 35842 ft 399 kts 202°
2026-04-21 22:07 37.43044 -113.71774 35844 ft 401 kts 202°
2026-04-21 22:08 37.37761 -113.74045 35831 ft 402 kts 202°
2026-04-21 22:08 37.32456 -113.76323 35827 ft 402 kts 202°
2026-04-21 22:09 37.27263 -113.78546 35812 ft 392 kts 202°
2026-04-21 22:09 37.22113 -113.80749 35848 ft 390 kts 202°
2026-04-21 22:10 37.16974 -113.82948 35827 ft 389 kts 202°
2026-04-21 22:10 37.11851 -113.85136 35847 ft 388 kts 202°
2026-04-21 22:11 37.06755 -113.87308 35827 ft 389 kts 203°
2026-04-21 22:11 37.01608 -113.89500 35828 ft 392 kts 203°
2026-04-21 22:12 36.96425 -113.91703 35822 ft 394 kts 203°
2026-04-21 22:12 36.92073 -113.93551 35807 ft 396 kts 203°
2026-04-21 22:13 36.86867 -113.95757 35811 ft 397 kts 203°
2026-04-21 22:13 36.81621 -113.97977 35804 ft 397 kts 203°
2026-04-21 22:14 36.76397 -114.00185 35806 ft 399 kts 203°
2026-04-21 22:14 36.71127 -114.02409 35798 ft 399 kts 203°
2026-04-21 22:15 36.65857 -114.04630 35792 ft 399 kts 203°
2026-04-21 22:15 36.60624 -114.06831 35802 ft 398 kts 203°
2026-04-21 22:16 36.55368 -114.09039 35805 ft 398 kts 204°
2026-04-21 22:16 36.50146 -114.11232 35800 ft 399 kts 204°
2026-04-21 22:17 36.44869 -114.13443 35784 ft 399 kts 204°
2026-04-21 22:17 36.39645 -114.15629 35774 ft 398 kts 203°
2026-04-21 22:18 36.34380 -114.17828 35756 ft 398 kts 204°
2026-04-21 22:18 36.29133 -114.20018 35786 ft 397 kts 204°
2026-04-21 22:19 36.23891 -114.22203 35787 ft 397 kts 204°
2026-04-21 22:19 36.18637 -114.24390 35792 ft 398 kts 204°
2026-04-21 22:20 36.13408 -114.26563 35779 ft 398 kts 204°
2026-04-21 22:20 36.08566 -114.29708 35759 ft 390 kts 218°
2026-04-21 22:21 36.04507 -114.34052 35780 ft 386 kts 229°
2026-04-21 22:21 36.00935 -114.39037 35792 ft 387 kts 230°
2026-04-21 22:22 35.97385 -114.44004 35777 ft 388 kts 229°
2026-04-21 22:22 35.93790 -114.49002 35791 ft 389 kts 229°
2026-04-21 22:23 35.90180 -114.54000 35800 ft 390 kts 229°
2026-04-21 22:23 35.86565 -114.58992 35812 ft 390 kts 229°
2026-04-21 22:24 35.82961 -114.63962 35830 ft 391 kts 229°
2026-04-21 22:24 35.79332 -114.68959 35836 ft 390 kts 229°
2026-04-21 22:25 35.75705 -114.73946 35837 ft 390 kts 229°
2026-04-21 22:25 35.72081 -114.78921 35858 ft 390 kts 229°
2026-04-21 22:26 35.68460 -114.83885 35864 ft 389 kts 229°
2026-04-21 22:26 35.64861 -114.88813 35876 ft 389 kts 229°
2026-04-21 22:27 35.61235 -114.93770 35867 ft 390 kts 229°
2026-04-21 22:27 35.57604 -114.98728 35869 ft 389 kts 229°
2026-04-21 22:28 35.54001 -115.03639 35882 ft 390 kts 229°
2026-04-21 22:28 35.50369 -115.08579 35879 ft 388 kts 229°
2026-04-21 22:29 35.46672 -115.13436 35895 ft 388 kts 228°
2026-04-21 22:29 35.42957 -115.18254 35889 ft 388 kts 228°
2026-04-21 22:30 35.39270 -115.23046 35892 ft 388 kts 228°
2026-04-21 22:30 35.35568 -115.27861 35906 ft 388 kts 228°
2026-04-21 22:31 35.31889 -115.32643 35903 ft 387 kts 228°
2026-04-21 22:31 35.28183 -115.37454 35911 ft 386 kts 228°
2026-04-21 22:32 35.24494 -115.42237 35898 ft 385 kts 228°
2026-04-21 22:32 35.20833 -115.46977 35911 ft 384 kts 228°
2026-04-21 22:33 35.17150 -115.51738 35906 ft 384 kts 228°
2026-04-21 22:33 35.13472 -115.56487 35902 ft 384 kts 228°
2026-04-21 22:34 35.09812 -115.61188 35898 ft 384 kts 228°
2026-04-21 22:34 35.06121 -115.65904 35906 ft 384 kts 228°
2026-04-21 22:35 35.02426 -115.70620 35898 ft 384 kts 228°
2026-04-21 22:35 34.98754 -115.75305 35895 ft 384 kts 228°
2026-04-21 22:36 34.93200 -115.82378 35879 ft 384 kts 228°
2026-04-21 22:36 34.89497 -115.87087 35883 ft 384 kts 228°
2026-04-21 22:37 34.85821 -115.91754 35870 ft 384 kts 228°
2026-04-21 22:37 34.82123 -115.96445 35893 ft 384 kts 228°
2026-04-21 22:38 34.78421 -116.01133 35868 ft 383 kts 228°
2026-04-21 22:38 34.74735 -116.05811 35857 ft 382 kts 229°
2026-04-21 22:39 34.71068 -116.10486 35864 ft 382 kts 229°
2026-04-21 22:39 34.67397 -116.15158 35875 ft 381 kts 229°
2026-04-21 22:40 34.63752 -116.19792 35863 ft 380 kts 228°
2026-04-21 22:40 34.60095 -116.24433 35871 ft 380 kts 228°
2026-04-21 22:41 34.56457 -116.29043 35889 ft 379 kts 228°
2026-04-21 22:41 34.52802 -116.33669 35896 ft 379 kts 228°
2026-04-21 22:42 34.50964 -116.35995 35394 ft 388 kts 228°
2026-04-21 22:42 34.49103 -116.38346 34929 ft 384 kts 228°
2026-04-21 22:42 34.47256 -116.40678 34016 ft 386 kts 228°
2026-04-21 22:42 34.45383 -116.43042 33074 ft 388 kts 228°
2026-04-21 22:43 34.43522 -116.45387 32573 ft 382 kts 228°
2026-04-21 22:43 34.41758 -116.47779 31951 ft 378 kts 234°
2026-04-21 22:43 34.40436 -116.50496 31455 ft 373 kts 242°
2026-04-21 22:43 34.39320 -116.53273 30911 ft 369 kts 242°
2026-04-21 22:44 34.38210 -116.56061 30370 ft 366 kts 242°
2026-04-21 22:44 34.37100 -116.58818 29790 ft 362 kts 242°
2026-04-21 22:44 34.35989 -116.61542 29169 ft 359 kts 241°
2026-04-21 22:44 34.34881 -116.64233 28664 ft 354 kts 241°
2026-04-21 22:45 34.33792 -116.66869 28443 ft 343 kts 241°
2026-04-21 22:45 34.32740 -116.69435 27907 ft 340 kts 242°
2026-04-21 22:45 34.31707 -116.72000 27443 ft 340 kts 242°
2026-04-21 22:45 34.30660 -116.74608 26931 ft 349 kts 242°
2026-04-21 22:46 34.29589 -116.77277 26455 ft 353 kts 242°
2026-04-21 22:46 34.28522 -116.79937 25886 ft 350 kts 242°
2026-04-21 22:46 34.27463 -116.82569 25401 ft 346 kts 242°
2026-04-21 22:46 34.26410 -116.85183 24861 ft 345 kts 242°
2026-04-21 22:47 34.25374 -116.87752 24392 ft 343 kts 242°
2026-04-21 22:47 34.24330 -116.90339 23875 ft 342 kts 242°
2026-04-21 22:47 34.23289 -116.92916 23313 ft 340 kts 242°
2026-04-21 22:47 34.22254 -116.95474 22757 ft 337 kts 242°
2026-04-21 22:48 34.21231 -116.98008 22239 ft 334 kts 243°
2026-04-21 22:48 34.20380 -117.00606 21772 ft 332 kts 249°
2026-04-21 22:48 34.19684 -117.03263 21232 ft 330 kts 250°
2026-04-21 22:48 34.19022 -117.05894 20814 ft 326 kts 250°
2026-04-21 22:49 34.18345 -117.08503 20335 ft 325 kts 249°
2026-04-21 22:49 34.17651 -117.11105 19848 ft 325 kts 249°
2026-04-21 22:49 34.16949 -117.13699 19372 ft 324 kts 249°
2026-04-21 22:49 34.16249 -117.16274 18875 ft 322 kts 249°
2026-04-21 22:50 34.15548 -117.18827 18528 ft 321 kts 249°
2026-04-21 22:50 34.14852 -117.21350 18007 ft 320 kts 249°
2026-04-21 22:50 34.14150 -117.23898 17491 ft 319 kts 249°
2026-04-21 22:50 34.13453 -117.26427 17015 ft 316 kts 249°
2026-04-21 22:51 34.12762 -117.28937 16544 ft 313 kts 249°
2026-04-21 22:51 34.12077 -117.31421 16097 ft 311 kts 249°
2026-04-21 22:51 34.11394 -117.33894 15637 ft 310 kts 249°
2026-04-21 22:51 34.10712 -117.36362 15182 ft 310 kts 249°
2026-04-21 22:52 34.10055 -117.38841 14716 ft 310 kts 251°
2026-04-21 22:52 34.09437 -117.41332 14242 ft 308 kts 251°
2026-04-21 22:52 34.08827 -117.43803 13792 ft 306 kts 251°
2026-04-21 22:52 34.08225 -117.46226 13335 ft 304 kts 251°
2026-04-21 22:53 34.07629 -117.48611 13243 ft 292 kts 251°
2026-04-21 22:53 34.07048 -117.50919 13067 ft 283 kts 251°
2026-04-21 22:53 34.06479 -117.53153 12769 ft 281 kts 251°
2026-04-21 22:53 34.05898 -117.55422 12380 ft 284 kts 251°
2026-04-21 22:54 34.05314 -117.57703 11969 ft 286 kts 251°
2026-04-21 22:54 34.04726 -117.59997 11525 ft 286 kts 250°
2026-04-21 22:54 34.04141 -117.62287 11117 ft 285 kts 250°
2026-04-21 22:54 34.03556 -117.64571 10700 ft 284 kts 250°
2026-04-21 22:55 34.02975 -117.66837 10467 ft 278 kts 250°
2026-04-21 22:55 34.02412 -117.69038 10297 ft 271 kts 249°
2026-04-21 22:55 34.01979 -117.71222 10122 ft 267 kts 258°
2026-04-21 22:55 34.01780 -117.73393 9898 ft 263 kts 259°
2026-04-21 22:56 34.01595 -117.75614 9540 ft 262 kts 260°
2026-04-21 22:56 34.01409 -117.77793 9209 ft 260 kts 260°
2026-04-21 22:56 34.01214 -117.79947 8890 ft 258 kts 259°
2026-04-21 22:56 34.01013 -117.82061 8557 ft 256 kts 259°
2026-04-21 22:57 34.00807 -117.84191 8238 ft 255 kts 260°
2026-04-21 22:57 34.00602 -117.86304 7921 ft 253 kts 260°
2026-04-21 22:57 34.00397 -117.88403 7611 ft 251 kts 260°
2026-04-21 22:57 34.00283 -117.89562 7436 ft 250 kts 261°
2026-04-21 22:58 34.00221 -117.90193 7348 ft 249 kts 261°
2026-04-21 22:58 34.00017 -117.92269 7030 ft 249 kts 261°
2026-04-21 22:58 33.99868 -117.94345 6721 ft 248 kts 264°
2026-04-21 22:58 33.99788 -117.95714 6506 ft 247 kts 263°
2026-04-21 22:59 33.99629 -117.97771 6176 ft 246 kts 262°
2026-04-21 22:59 33.99434 -117.99819 5870 ft 246 kts 262°
2026-04-21 22:59 33.99222 -118.01864 5530 ft 246 kts 261°
2026-04-21 22:59 33.99005 -118.03913 5216 ft 247 kts 261°
2026-04-21 23:00 33.98787 -118.05962 4917 ft 246 kts 261°
2026-04-21 23:00 33.98572 -118.08003 4662 ft 241 kts 260°
2026-04-21 23:00 33.98364 -118.09970 4436 ft 234 kts 260°
2026-04-21 23:00 33.98161 -118.11882 4173 ft 231 kts 261°
2026-04-21 23:01 33.97960 -118.13795 3914 ft 227 kts 261°
2026-04-21 23:01 33.97763 -118.15664 3652 ft 222 kts 260°
2026-04-21 23:01 33.97574 -118.17478 3420 ft 214 kts 260°
2026-04-21 23:01 33.97391 -118.19223 3213 ft 205 kts 260°
2026-04-21 23:02 33.97221 -118.20844 3054 ft 193 kts 260°
2026-04-21 23:02 33.97058 -118.22405 2964 ft 183 kts 259°
2026-04-21 23:02 33.96897 -118.23933 2765 ft 186 kts 261°
2026-04-21 23:02 33.96735 -118.25479 2530 ft 186 kts 261°
2026-04-21 23:03 33.96576 -118.27011 2283 ft 183 kts 260°
2026-04-21 23:03 33.96420 -118.28510 2041 ft 178 kts 260°
2026-04-21 23:03 33.96267 -118.29988 1825 ft 178 kts 259°
2026-04-21 23:03 33.96118 -118.31429 1581 ft 168 kts 259°
2026-04-21 23:04 33.95979 -118.32768 1347 ft 154 kts 258°
2026-04-21 23:04 33.95851 -118.34002 1171 ft 147 kts 260°
2026-04-21 23:04 33.95726 -118.35206 960 ft 146 kts 258°
2026-04-21 23:04 33.95583 -118.36437 760 ft 151 kts 257°
2026-04-21 23:05 33.95473 -118.37691 572 ft 150 kts 258°
2026-04-21 23:05 33.95339 -118.38999 319 ft 157 kts 256°
2026-04-21 23:05 33.95207 -118.40273 123 ft 153 kts 259°
2026-04-21 23:05 33.95094 -118.41491 150 ft 154 kts 260°
2026-04-21 23:06 33.94950 -118.42869 668 ft 179 kts 261°
2026-04-21 23:06 33.94795 -118.44335 1163 ft 174 kts 262°
2026-04-21 23:06 33.94653 -118.45774 1374 ft 176 kts 262°
2026-04-21 23:06 33.94549 -118.47290 1460 ft 187 kts 265°
2026-04-21 23:07 33.94426 -118.48850 1924 ft 185 kts 263°
2026-04-21 23:07 33.94295 -118.50368 1942 ft 180 kts 262°
2026-04-21 23:07 33.94187 -118.51907 1990 ft 190 kts 269°
2026-04-21 23:07 33.94409 -118.53516 2003 ft 197 kts 277°
2026-04-21 23:08 33.94346 -118.55177 2043 ft 200 kts 259°
2026-04-21 23:08 33.94176 -118.56843 2523 ft 199 kts 262°
2026-04-21 23:08 33.94032 -118.58497 3200 ft 199 kts 262°
2026-04-21 23:08 33.93949 -118.59466 3553 ft 201 kts 262°
2026-04-21 23:09 33.93828 -118.60929 4030 ft 204 kts 262°
2026-04-21 23:09 33.93689 -118.62633 4635 ft 205 kts 263°
2026-04-21 23:09 33.93852 -118.64357 4939 ft 215 kts 289°
2026-04-21 23:09 33.94794 -118.65742 4941 ft 226 kts 323°
2026-04-21 23:10 33.96311 -118.66320 4975 ft 236 kts 357°
2026-04-21 23:10 33.97918 -118.65837 5000 ft 244 kts 30°
2026-04-21 23:10 33.99118 -118.64410 4987 ft 246 kts 63°
2026-04-21 23:10 33.99657 -118.62476 5003 ft 245 kts 79°
2026-04-21 23:11 34.00002 -118.60460 5002 ft 247 kts 81°
2026-04-21 23:11 34.00333 -118.58418 4993 ft 249 kts 81°
2026-04-21 23:11 34.00658 -118.56376 4987 ft 246 kts 81°
2026-04-21 23:11 34.00977 -118.54359 4975 ft 243 kts 82°
2026-04-21 23:12 34.01293 -118.52367 4976 ft 241 kts 81°
2026-04-21 23:12 34.01604 -118.50380 4996 ft 242 kts 81°
2026-04-21 23:12 34.01915 -118.48384 5001 ft 244 kts 81°
2026-04-21 23:12 34.02228 -118.46383 4842 ft 248 kts 82°
2026-04-21 23:13 34.02547 -118.44354 4707 ft 242 kts 81°
2026-04-21 23:13 34.02852 -118.42404 4527 ft 232 kts 81°
2026-04-21 23:13 34.03149 -118.40519 4342 ft 228 kts 81°
2026-04-21 23:13 34.03446 -118.38638 4150 ft 227 kts 81°
2026-04-21 23:14 34.03741 -118.36779 3993 ft 225 kts 82°
2026-04-21 23:14 34.04048 -118.34934 3846 ft 223 kts 82°
2026-04-21 23:14 34.04364 -118.33108 3675 ft 221 kts 82°
2026-04-21 23:14 34.04665 -118.31293 3523 ft 218 kts 81°
2026-04-21 23:15 34.04941 -118.29501 3406 ft 216 kts 81°
2026-04-21 23:15 34.05211 -118.27730 3281 ft 213 kts 81°
2026-04-21 23:15 34.05465 -118.26008 3181 ft 210 kts 81°
2026-04-21 23:15 34.05712 -118.24289 3054 ft 208 kts 81°
2026-04-21 23:16 34.05826 -118.22541 2916 ft 209 kts 92°
2026-04-21 23:16 34.05791 -118.20801 2791 ft 206 kts 91°
2026-04-21 23:16 34.05761 -118.19112 2647 ft 197 kts 91°
2026-04-21 23:16 34.05733 -118.17476 2586 ft 192 kts 92°
2026-04-21 23:17 34.05709 -118.15860 2590 ft 193 kts 91°
2026-04-21 23:17 34.05710 -118.14206 2603 ft 202 kts 92°
2026-04-21 23:17 34.05752 -118.12489 2599 ft 205 kts 92°
2026-04-21 23:17 34.05816 -118.10778 2592 ft 203 kts 91°
2026-04-21 23:18 34.05782 -118.09108 2560 ft 194 kts 111°
2026-04-21 23:18 34.05073 -118.07860 2607 ft 177 kts 152°
2026-04-21 23:18 34.03958 -118.07344 2614 ft 169 kts 171°
2026-04-21 23:18 34.02834 -118.06996 2573 ft 164 kts 173°
2026-04-21 23:19 34.01753 -118.07135 2603 ft 162 kts 211°
2026-04-21 23:19 34.00941 -118.08077 2605 ft 161 kts 230°
2026-04-21 23:19 34.00237 -118.09118 2598 ft 158 kts 231°
2026-04-21 23:19 33.99565 -118.10147 2580 ft 154 kts 231°
2026-04-21 23:20 33.98893 -118.11165 2594 ft 157 kts 231°
2026-04-21 23:20 33.98225 -118.12213 2575 ft 158 kts 241°
2026-04-21 23:20 33.98010 -118.13502 2604 ft 159 kts 263°
2026-04-21 23:20 33.97872 -118.14842 2587 ft 161 kts 260°
2026-04-21 23:21 33.97718 -118.16182 2590 ft 162 kts 260°
2026-04-21 23:21 33.97570 -118.17531 2599 ft 162 kts 259°
2026-04-21 23:21 33.97425 -118.18886 2584 ft 163 kts 259°
2026-04-21 23:21 33.97283 -118.20239 2584 ft 162 kts 260°
2026-04-21 23:22 33.97145 -118.21553 2575 ft 160 kts 261°
2026-04-21 23:22 33.97005 -118.22894 2576 ft 159 kts 260°
2026-04-21 23:22 33.96871 -118.24187 2600 ft 157 kts 259°
2026-04-21 23:22 33.96732 -118.25504 2512 ft 160 kts 259°
2026-04-21 23:23 33.96593 -118.26846 2307 ft 162 kts 260°
2026-04-21 23:23 33.96454 -118.28179 2089 ft 158 kts 260°
2026-04-21 23:23 33.96321 -118.29469 1882 ft 151 kts 260°
2026-04-21 23:23 33.96191 -118.30712 1700 ft 151 kts 261°
2026-04-21 23:24 33.96064 -118.31949 1517 ft 145 kts 260°
2026-04-21 23:24 33.95937 -118.33143 1318 ft 144 kts 259°
2026-04-21 23:24 33.95816 -118.34326 1099 ft 143 kts 261°
2026-04-21 23:24 33.95692 -118.35552 938 ft 152 kts 261°
2026-04-21 23:25 33.95557 -118.36831 700 ft 154 kts 258°
2026-04-21 23:25 33.95423 -118.38102 462 ft 152 kts 259°
2026-04-21 23:25 33.95294 -118.39373 267 ft 154 kts 260°
2026-04-21 23:25 33.95167 -118.40632 103 ft 145 kts 263°
2026-04-21 23:26 33.95059 -118.41679 95 ft 98 kts 262°
2026-04-21 23:26 33.94997 -118.42236 93 ft 38 kts 259°
2026-04-21 23:26 33.94940 -118.42370 93 ft 14 kts 232°
2026-04-21 23:26 33.94872 -118.42457 95 ft 15 kts 220°
2026-04-21 23:27 33.94787 -118.42488 98 ft 12 kts 182°
2026-04-21 23:27 33.94711 -118.42481 96 ft 10 kts 172°
2026-04-21 23:27 33.94666 -118.42425 94 ft 11 kts 91°
2026-04-21 23:27 33.94671 -118.42339 93 ft 10 kts 82°
2026-04-21 23:28 33.94680 -118.42255 93 ft 10 kts 83°
2026-04-21 23:28 33.94689 -118.42173 96 ft 10 kts 83°
2026-04-21 23:28 33.94698 -118.42081 92 ft 12 kts 83°
2026-04-21 23:28 33.94710 -118.41967 92 ft 15 kts 83°
2026-04-21 23:29 33.94722 -118.41843 92 ft 15 kts 83°
2026-04-21 23:29 33.94734 -118.41723 93 ft 14 kts 83°
2026-04-21 23:29 33.94745 -118.41610 92 ft 13 kts 83°
2026-04-21 23:29 33.94757 -118.41500 93 ft 13 kts 83°
2026-04-21 23:30 33.94775 -118.41396 96 ft 13 kts 69°
2026-04-21 23:30 33.94791 -118.41295 95 ft 12 kts 83°
2026-04-21 23:30 33.94801 -118.41194 93 ft 12 kts 83°
2026-04-21 23:30 33.94812 -118.41096 94 ft 12 kts 83°
2026-04-21 23:31 33.94822 -118.40989 94 ft 15 kts 84°
2026-04-21 23:31 33.94835 -118.40862 94 ft 15 kts 82°
2026-04-21 23:31 33.94848 -118.40739 95 ft 14 kts 83°
2026-04-21 23:31 33.94859 -118.40632 93 ft 10 kts 88°
2026-04-21 23:32 33.94810 -118.40596 94 ft 9 kts 166°
2026-04-21 23:32 33.94751 -118.40580 93 ft 9 kts 171°
2026-04-21 23:32 33.94692 -118.40572 94 ft 8 kts 173°
2026-04-21 23:32 33.94635 -118.40563 92 ft 8 kts 165°
2026-04-21 23:33 33.94611 -118.40509 92 ft 6 kts 96°
2026-04-21 23:33 33.94609 -118.40483 92 ft 0 kts 96°